This is the latest recevied weather packets stored in our database for station/object SP3SWJ-13. If no packets are shown the sender has not sent any weather packets the latest 10 day(s).
| Time | Temp. | Humidity | Pressure | Rain* | Wind** | Luminosity | Snow |
|---|---|---|---|---|---|---|---|
| 1777807267 | 27.22° C | 23% | 1004.8 hPa | - | - | 735 W/m² | - |
| 1777806967 | 27.78° C | 23% | 1004.8 hPa | - | - | 737 W/m² | - |
| 1777806666 | 26.67° C | 21% | 1005 hPa | - | - | 740 W/m² | - |
| 1777806365 | 26.67° C | 23% | 1004.9 hPa | - | - | 731 W/m² | - |
| 1777806064 | 26.67° C | 24% | 1005 hPa | - | - | 737 W/m² | - |
| 1777805763 | 27.78° C | 23% | 1005 hPa | - | - | 735 W/m² | - |
| 1777805462 | 26.67° C | 25% | 1004.9 hPa | - | - | 733 W/m² | - |
| 1777805161 | 26.67° C | 26% | 1005.1 hPa | - | - | 729 W/m² | - |
| 1777804559 | 27.22° C | 26% | 1005.2 hPa | - | - | 725 W/m² | - |
| 1777804258 | 27.22° C | 26% | 1005.2 hPa | - | - | 724 W/m² | - |
| 1777803957 | 27.22° C | 26% | 1005.2 hPa | - | - | 713 W/m² | - |
| 1777803656 | 26.67° C | 26% | 1005.3 hPa | - | - | 718 W/m² | - |
| 1777803355 | 26.11° C | 26% | 1005.4 hPa | - | - | 714 W/m² | - |
| 1777803054 | 26.67° C | 28% | 1005.3 hPa | - | - | 712 W/m² | - |
| 1777802753 | 26.11° C | 28% | 1005.5 hPa | - | - | 707 W/m² | - |
| 1777802452 | 26.11° C | 29% | 1005.5 hPa | - | - | 707 W/m² | - |
| 1777802151 | 25.56° C | 28% | 1005.5 hPa | - | - | 703 W/m² | - |
| 1777801851 | 25.56° C | 30% | 1005.5 hPa | - | - | 697 W/m² | - |
| 1777801550 | 25.56° C | 30% | 1005.5 hPa | - | - | 693 W/m² | - |
| 1777801249 | 24.44° C | 30% | 1005.6 hPa | - | - | 668 W/m² | - |
| 1777800948 | 24.44° C | 30% | 1005.6 hPa | - | - | 680 W/m² | - |
| 1777800647 | 25° C | 30% | 1005.6 hPa | - | - | 668 W/m² | - |
| 1777800346 | 25.56° C | 30% | 1005.7 hPa | - | - | 669 W/m² | - |
| 1777800045 | 25.56° C | 29% | 1005.8 hPa | - | - | 661 W/m² | - |
| 1777799744 | 24.44° C | 29% | 1005.8 hPa | - | - | 651 W/m² | - |
* Rain since midnight (hover to see other rain measurements)
** Current wind speed in m/s (hover to see current wind gust speed)